Mount Carmel, IL

4:38 AM CDT on June 27, 2017 (GMT -0500)
Mount Carmel Municipal

Weather History for KAJG - July, 2014

Change the Weather History Date:

Tuesday, July 15, 2014

  Actual Average (KLWV) Record (KLWV)
Temperature  
Mean Temperature 66 °F -  
Max Temperature 73 °F 85 °F 94 °F (2010)
Min Temperature 59 °F 64 °F 57 °F (2001)
Cooling Degree Days 1    
Growing Degree Days 16 (Base 50)    
Moisture  
Dew Point 56 °F    
Average Humidity 71    
Maximum Humidity 94    
Minimum Humidity 47    
Precipitation  
Precipitation 0.18 in - - ()
Sea Level Pressure  
Sea Level Pressure 29.97 in    
Wind  
Wind Speed 6 mph (NW)    
Max Wind Speed 15 mph    
Max Gust Speed 18 mph    
Visibility 10 miles    
Events      
Averages and records for this station are not official NWS values.
T = Trace of Precipitation, MM = Missing Value Source: NWS Daily Summary

Daily Weather History Graph

Daily Weather History Graph

Search for Another Location

Airport or City:

Trip Planner

Search our weather history database for the weather conditions in past years. The results will help you decide how hot, cold, wet, or windy it might be!

Date:

Astronomy

Jul. 15, 2014 Rise Set
Actual Time 5:38 AM CDT 8:14 PM CDT
Civil Twilight 5:07 AM CDT 8:45 PM CDT
Nautical Twilight 4:29 AM CDT 9:24 PM CDT
Astronomical Twilight 3:46 AM CDT 10:07 PM CDT
Moon 10:26 PM CDT (7/15) 9:29 AM CDT (7/15)
Length of Visible Light 15h 37m
Length of Day
14h 36m
Waning Gibbous, 85% of the Moon is Illuminated
Jul 15
Waning Gibbous
Jul 18
Last Quarter
Jul 26
New
Aug 3
First Quarter
Aug 10
Full

Hourly Weather History & Observations

Time (CDT) Temp. Dew Point Humidity Pressure Visibility Wind Dir Wind Speed Gust Speed Precip Events Conditions
12:15 AM 68.0 °F 64.4 °F 88% 29.92 in 10.0 mi Calm Calm - N/A   Scattered Clouds
12:35 AM 68.0 °F 62.6 °F 83% 29.93 in 10.0 mi NW 6.9 mph - N/A   Scattered Clouds
12:55 AM 68.0 °F 62.6 °F 83% 29.92 in 10.0 mi NW 6.9 mph - 0.01 in   Clear
1:15 AM 66.2 °F 62.6 °F 88% 29.91 in 10.0 mi NW 5.8 mph - N/A   Clear
1:35 AM 64.4 °F 60.8 °F 88% 29.92 in 10.0 mi NW 6.9 mph - 0.01 in   Clear
1:55 AM 64.4 °F 60.8 °F 88% 29.92 in 10.0 mi Calm Calm - 0.01 in   Clear
2:15 AM 64.4 °F 60.8 °F 88% 29.91 in 10.0 mi NW 4.6 mph - N/A   Clear
2:35 AM 62.6 °F 60.8 °F 94% 29.92 in 10.0 mi NW 4.6 mph - 0.01 in   Clear
2:55 AM 62.6 °F 60.8 °F 94% 29.92 in 10.0 mi NW 4.6 mph - 0.01 in   Clear
3:15 AM 62.6 °F 60.8 °F 94% 29.93 in 10.0 mi NW 5.8 mph - 0.01 in   Clear
3:35 AM 62.6 °F 59.0 °F 88% 29.93 in 10.0 mi NW 3.5 mph - 0.01 in   Clear
3:55 AM 62.6 °F 59.0 °F 88% 29.93 in 10.0 mi WNW 4.6 mph - 0.02 in   Clear
4:15 AM 60.8 °F 59.0 °F 94% 29.93 in 10.0 mi NW 5.8 mph - N/A   Clear
4:35 AM 60.8 °F 59.0 °F 94% 29.94 in 10.0 mi WNW 4.6 mph - 0.01 in   Clear
4:55 AM 60.8 °F 59.0 °F 94% 29.94 in 10.0 mi WNW 4.6 mph - 0.01 in   Clear
5:15 AM 59.0 °F 57.2 °F 94% 29.95 in 10.0 mi WNW 4.6 mph - 0.01 in   Clear
5:35 AM 59.0 °F 57.2 °F 94% 29.95 in 10.0 mi WNW 5.8 mph - 0.01 in   Clear
6:15 AM 60.8 °F 57.2 °F 88% 29.96 in 10.0 mi NW 6.9 mph - 0.01 in   Clear
6:35 AM 60.8 °F 55.4 °F 82% 29.96 in 10.0 mi NW 5.8 mph - 0.01 in   Clear
6:55 AM 60.8 °F 55.4 °F 82% 29.98 in 10.0 mi NW 5.8 mph - 0.02 in   Clear
7:15 AM 62.6 °F 57.2 °F 82% 29.98 in 10.0 mi NW 5.8 mph - N/A   Clear
7:35 AM 62.6 °F 57.2 °F 82% 29.99 in 10.0 mi WNW 6.9 mph - 0.01 in   Clear
7:55 AM 62.6 °F 55.4 °F 77% 29.99 in 10.0 mi NW 6.9 mph - 0.01 in   Clear
8:15 AM 64.4 °F 55.4 °F 73% 29.99 in 10.0 mi NW 6.9 mph - N/A   Clear
8:35 AM 64.4 °F 55.4 °F 73% 29.99 in 10.0 mi NW 9.2 mph - 0.01 in   Clear
8:55 AM 66.2 °F 55.4 °F 68% 30.00 in 10.0 mi WNW 9.2 mph - 0.01 in   Clear
9:15 AM 68.0 °F 55.4 °F 64% 30.00 in 10.0 mi NW 9.2 mph - 0.01 in   Clear
9:35 AM 68.0 °F 55.4 °F 64% 30.00 in 10.0 mi NW 9.2 mph - 0.01 in   Clear
9:55 AM 69.8 °F 55.4 °F 60% 29.99 in 10.0 mi WNW 6.9 mph 16.1 mph 0.02 in   Clear
10:15 AM 69.8 °F 55.4 °F 60% 30.00 in 10.0 mi NW 8.1 mph - N/A   Clear
10:35 AM 69.8 °F 53.6 °F 56% 29.99 in 10.0 mi West 10.4 mph - 0.01 in   Clear
10:55 AM 69.8 °F 53.6 °F 56% 29.99 in 10.0 mi WNW 9.2 mph - 0.01 in   Clear
11:15 AM 71.6 °F 53.6 °F 53% 29.99 in 10.0 mi WNW 11.5 mph 17.3 mph N/A   Scattered Clouds
11:35 AM 71.6 °F 53.6 °F 53% 29.99 in 10.0 mi NW 10.4 mph - 0.01 in   Scattered Clouds
11:55 AM 71.6 °F 53.6 °F 53% 29.99 in 10.0 mi NW 15.0 mph - 0.01 in   Scattered Clouds
12:15 PM 71.6 °F 51.8 °F 50% 29.99 in 10.0 mi NW 10.4 mph - N/A   Clear
12:35 PM 71.6 °F 53.6 °F 53% 30.00 in 10.0 mi NW 10.4 mph 18.4 mph 0.01 in   Scattered Clouds
12:55 PM 73.4 °F 53.6 °F 50% 29.99 in 10.0 mi NW 9.2 mph - 0.01 in   Scattered Clouds
1:15 PM 73.4 °F 51.8 °F 47% 29.99 in 10.0 mi NW 12.7 mph 16.1 mph N/A   Scattered Clouds
1:35 PM 71.6 °F 51.8 °F 50% 29.99 in 10.0 mi NNW 9.2 mph - N/A   Mostly Cloudy
1:55 PM 73.4 °F 51.8 °F 47% 29.99 in 10.0 mi WNW 11.5 mph 18.4 mph N/A   Mostly Cloudy
2:15 PM 73.4 °F 53.6 °F 50% 29.99 in 10.0 mi NW 10.4 mph - 0.01 in   Mostly Cloudy
2:35 PM 73.4 °F 51.8 °F 47% 29.99 in 10.0 mi NNW 10.4 mph 18.4 mph 0.01 in   Scattered Clouds
2:55 PM 73.4 °F 51.8 °F 47% 29.99 in 10.0 mi NNW 8.1 mph - 0.01 in   Mostly Cloudy
3:35 PM 73.4 °F 53.6 °F 50% 29.98 in 10.0 mi NW 10.4 mph - N/A   Mostly Cloudy
3:55 PM 71.6 °F 51.8 °F 50% 29.98 in 10.0 mi NNW 8.1 mph - N/A   Mostly Cloudy
4:15 PM 73.4 °F 53.6 °F 50% 29.98 in 10.0 mi NW 8.1 mph - N/A   Scattered Clouds
4:35 PM 73.4 °F 53.6 °F 50% 29.98 in 10.0 mi NW 6.9 mph - N/A   Scattered Clouds
4:55 PM 73.4 °F 51.8 °F 47% 29.97 in 10.0 mi NNW 13.8 mph 17.3 mph N/A   Scattered Clouds
5:15 PM 73.4 °F 53.6 °F 50% 29.97 in 10.0 mi NW 9.2 mph - N/A   Scattered Clouds
5:35 PM 73.4 °F 53.6 °F 50% 29.97 in 10.0 mi NNW 6.9 mph - 0.01 in   Clear
5:55 PM 73.4 °F 53.6 °F 50% 29.97 in 10.0 mi NNW 9.2 mph - 0.01 in   Clear
6:15 PM 71.6 °F 53.6 °F 53% 29.97 in 10.0 mi NNW 6.9 mph - N/A   Clear
6:35 PM 71.6 °F 53.6 °F 53% 29.97 in 10.0 mi NNW 8.1 mph - N/A   Clear
6:55 PM 71.6 °F 51.8 °F 50% 29.97 in 10.0 mi NNW 8.1 mph - N/A   Clear
7:15 PM 69.8 °F 53.6 °F 56% 29.97 in 10.0 mi NNW 6.9 mph - N/A   Clear
7:35 PM 69.8 °F 55.4 °F 60% 29.97 in 10.0 mi NNW 4.6 mph - N/A   Clear
7:55 PM 68.0 °F 55.4 °F 64% 29.98 in 10.0 mi NW 3.5 mph - N/A   Clear
8:15 PM 64.4 °F 59.0 °F 83% 29.98 in 10.0 mi NW 3.5 mph - N/A   Clear
8:35 PM 64.4 °F 59.0 °F 83% 29.99 in 10.0 mi NNW 4.6 mph - N/A   Clear
8:55 PM 62.6 °F 59.0 °F 88% 29.99 in 10.0 mi NNW 4.6 mph - N/A   Clear
9:15 PM 62.6 °F 59.0 °F 88% 29.99 in 10.0 mi NNW 3.5 mph - N/A   Scattered Clouds
9:35 PM 62.6 °F 59.0 °F 88% 30.00 in 10.0 mi NW 3.5 mph - N/A   Overcast
9:55 PM 62.6 °F 59.0 °F 88% 30.00 in 10.0 mi Calm Calm - N/A   Overcast
10:15 PM 62.6 °F 59.0 °F 88% 30.01 in 10.0 mi Calm Calm - N/A   Overcast
10:35 PM 62.6 °F 59.0 °F 88% 30.01 in 10.0 mi Calm Calm - N/A   Overcast
10:55 PM 60.8 °F 59.0 °F 94% 30.01 in 10.0 mi Calm Calm - N/A   Mostly Cloudy
11:15 PM 62.6 °F 60.8 °F 94% 30.01 in 10.0 mi Calm Calm - N/A   Overcast
11:35 PM 62.6 °F 60.8 °F 94% 30.02 in 10.0 mi Calm Calm - N/A   Overcast
11:55 PM 60.8 °F 59.0 °F 94% 30.01 in 10.0 mi NNW 4.6 mph - N/A   Scattered Clouds